BSAT-3B

Last updated on Nov. 15, 2019, 4:20 a.m. UTC

1 37207U 10056B   19318.00333914 -.00000336  00000-0  00000+0 0  9998
2 37207   0.0404 319.0643 0003837 323.4341 241.4069  1.00270486 33130
UTC
Height (km)
Latitude
Longitude
Inclination
Orbital Period
UTC large
Height (km)
Speed (km/s)
/
Latitude / Longitude
Inclination (degrees)
Orbital Period (minutes)
Azimuth
Elevation
Range (km)
Doppler Factor
iOS Compass Heading
iOS Angle

Next 30 passes for location: Hong Kong

Rise time Rise Azimuth (degrees) Set time Set Azimuth (degrees) Duration Max altitude (degrees)

No matching passes for this satellites